Weather History for KNMM - February, 2013

Change the Weather History Date:

Friday, February 22, 2013

  Actual Average Record
Temperature  
Mean Temperature 60 °F -  
Max Temperature 66 °F 60 °F 77 °F (2007)
Min Temperature 53 °F 42 °F 26 °F (1999)
Degree Days  
Heating Degree Days 6    
Growing Degree Days 10 (Base 50)    
Moisture  
Dew Point 51 °F    
Average Humidity 84    
Maximum Humidity 100    
Minimum Humidity 39    
Precipitation  
Precipitation 0.22 in - - ()
Sea Level Pressure  
Sea Level Pressure 29.97 in    
Wind  
Wind Speed 4 mph (North)    
Max Wind Speed 12 mph    
Max Gust Speed 25 mph    
Visibility 7 miles    
Events Rain , Thunderstorm    
Averages and records for this station are not official NWS values.
T = Trace of Precipitation, MM = Missing Value Source: NWS Daily Summary

Daily Weather History Graph

Daily Weather History Graph

Search for Another Location

Airport or City:

Trip Planner

Search our weather history database for the weather conditions in past years. The results will help you decide how hot, cold, wet, or windy it might be!

Date:

Astronomy

Feb. 22, 2013 Rise Set
Actual Time 6:29 AM CST 5:46 PM CST
Civil Twilight 6:04 AM CST 6:11 PM CST
Nautical Twilight 5:36 AM CST 6:39 PM CST
Astronomical Twilight 5:07 AM CST 7:08 PM CST
Moon 3:03 PM CST (2/22) 4:07 AM CST (2/22)
Length of Visible Light 12h 06m
Length of Day
11h 16m
Waxing Gibbous, 90% of the Moon is Illuminated
Feb 22
Waxing Gibbous
Feb 25
Full
Mar 4
Last Quarter
Mar 11
New
Mar 19
First Quarter

Hourly Weather History & Observations

Time (CST) Temp. Dew Point Humidity Pressure Visibility Wind Dir Wind Speed Gust Speed Precip Events Conditions
12:12 AM 57.2 °F 55.4 °F 94% 29.89 in 4.0 mi Calm Calm - 0.01 in Rain Light Rain
12:24 AM 57.2 °F 55.4 °F 94% 29.89 in 5.0 mi North 4.6 mph - 0.02 in Rain , Thunderstorm Light Thunderstorms and Rain
12:27 AM 57.2 °F 55.4 °F 94% 29.89 in 2.5 mi Calm Calm - 0.02 in Rain , Thunderstorm Light Thunderstorms and Rain
12:35 AM 57.2 °F 55.4 °F 94% 29.89 in 1.5 mi Calm Calm - 0.03 in Rain Light Rain
12:44 AM 57.2 °F 55.4 °F 94% 29.90 in 3.0 mi Calm Calm - 0.04 in Rain Light Rain
12:54 AM 57.2 °F 55.4 °F 94% 29.89 in 1.8 mi Calm Calm - 0.04 in   Overcast
12:56 AM 57.0 °F 55.0 °F 93% 29.92 in 1.8 mi Calm Calm - 0.04 in   Overcast
1:19 AM 55.4 °F 55.4 °F 100% 29.91 in 2.0 mi West 3.5 mph - N/A   Overcast
1:28 AM 57.2 °F 57.2 °F 100% 29.91 in 6.0 mi WNW 10.4 mph - N/A   Overcast
1:47 AM 60.8 °F 57.2 °F 88% 29.91 in 10.0 mi NW 11.5 mph - N/A   Overcast
1:56 AM 60.1 °F 57.0 °F 90% 29.94 in 10.0 mi NW 9.2 mph - N/A   Overcast
2:56 AM 57.9 °F 55.9 °F 93% 29.96 in 10.0 mi NW 4.6 mph - 0.00 in   Overcast
3:56 AM 55.9 °F 54.0 °F 93% 29.96 in 9.0 mi North 5.8 mph - N/A   Scattered Clouds
4:56 AM 55.0 °F 53.1 °F 93% 29.99 in 10.0 mi Calm Calm - N/A   Mostly Cloudy
5:48 AM 53.6 °F 53.6 °F 100% 29.95 in 8.0 mi NE 5.8 mph - N/A   Mostly Cloudy
5:56 AM 54.0 °F 53.1 °F 97% 29.98 in 8.0 mi NE 3.5 mph - N/A   Mostly Cloudy
6:56 AM 54.0 °F 52.0 °F 93% 30.03 in 7.0 mi Calm Calm - N/A   Mostly Cloudy
7:56 AM 55.0 °F 51.1 °F 86% 30.04 in 10.0 mi ENE 3.5 mph - N/A   Mostly Cloudy
8:56 AM 57.0 °F 48.9 °F 74% 30.07 in 10.0 mi Calm Calm - N/A   Mostly Cloudy
9:56 AM 62.1 °F 46.9 °F 58% 30.07 in 10.0 mi NNE 3.5 mph - N/A   Mostly Cloudy
10:56 AM 64.9 °F 44.1 °F 47% 30.06 in 10.0 mi NNE 6.9 mph - N/A   Mostly Cloudy
11:56 AM 66.9 °F 43.0 °F 42% 30.04 in 10.0 mi ENE 6.9 mph - N/A   Mostly Cloudy
12:56 PM 66.9 °F 41.0 °F 39% 30.01 in 10.0 mi NNE 6.9 mph - N/A   Mostly Cloudy
1:56 PM 64.0 °F 42.1 °F 45% 29.98 in 10.0 mi NNE 6.9 mph - N/A   Overcast
2:10 PM 64.4 °F 42.8 °F 45% 29.96 in - East 5.8 mph - N/A   Unknown
2:48 PM 62.6 °F 46.4 °F 55% 29.95 in 10.0 mi Variable 4.6 mph - N/A Thunderstorm Thunderstorm
2:56 PM 62.1 °F 46.0 °F 56% 30.01 in 10.0 mi NW 8.1 mph - 0.00 in Rain , Thunderstorm Light Thunderstorms and Rain
3:41 PM 57.2 °F 51.8 °F 82% 29.99 in 10.0 mi NW 4.6 mph - 0.00 in   Overcast
3:56 PM 57.0 °F 51.1 °F 81% 29.99 in 10.0 mi NNE 5.8 mph - 0.00 in   Overcast
4:10 PM 57.2 °F 50.0 °F 77% 29.97 in 10.0 mi South 9.2 mph - 0.01 in Rain , Thunderstorm Light Thunderstorms and Rain
4:35 PM 57.2 °F 50.0 °F 77% 29.96 in 10.0 mi Variable 3.5 mph - 0.01 in   Overcast
4:56 PM 57.0 °F 51.1 °F 81% 29.99 in 10.0 mi North 3.5 mph - 0.01 in   Overcast
5:16 PM 57.2 °F 51.8 °F 82% 29.95 in 10.0 mi Calm Calm - 0.01 in Thunderstorm Thunderstorm
5:56 PM 55.9 °F 50.0 °F 80% 30.01 in 10.0 mi NNW 8.1 mph - 0.01 in Thunderstorm Thunderstorm
6:22 PM 55.4 °F 50.0 °F 82% 30.00 in 8.0 mi North 9.2 mph 25.3 mph 0.01 in Rain Light Rain
6:56 PM 54.0 °F 50.0 °F 86% 30.01 in 9.0 mi North 6.9 mph - 0.02 in Rain Light Rain
7:56 PM 54.0 °F 50.0 °F 86% 30.00 in 10.0 mi ENE 8.1 mph - 0.00 in   Overcast
8:56 PM 54.0 °F 51.1 °F 90% 29.99 in 10.0 mi Calm Calm - N/A   Overcast
9:07 PM 53.6 °F 51.8 °F 94% 29.97 in 10.0 mi East 3.5 mph - N/A   Overcast
9:18 PM 53.6 °F 51.8 °F 94% 29.97 in 10.0 mi North 3.5 mph - N/A   Overcast
9:41 PM 53.6 °F 51.8 °F 94% 29.98 in 4.0 mi NNW 9.2 mph - 0.01 in Rain Rain
9:56 PM 54.0 °F 52.0 °F 93% 30.01 in 2.5 mi North 4.6 mph - 0.06 in Rain Heavy Rain
10:08 PM 53.6 °F 51.8 °F 94% 29.99 in 4.0 mi WNW 4.6 mph - 0.01 in Rain Light Rain
10:43 PM 53.6 °F 51.8 °F 94% 29.97 in 5.0 mi North 4.6 mph - 0.01 in   Overcast
10:56 PM 54.0 °F 52.0 °F 93% 30.02 in 6.0 mi Calm Calm - 0.01 in Rain Light Rain
11:14 PM 53.6 °F 53.6 °F 100% 29.97 in 4.0 mi Calm Calm - 0.01 in Rain , Thunderstorm Light Thunderstorms and Rain
11:54 PM 53.6 °F 53.6 °F 100% 30.00 in 2.5 mi NW 4.6 mph - 0.03 in Rain , Thunderstorm Thunderstorms and Rain
11:56 PM 54.0 °F 53.1 °F 97% 30.02 in 2.0 mi NNW 4.6 mph - 0.07 in Rain , Thunderstorm Thunderstorms and Rain
11:59 PM 53.6 °F 53.6 °F 100% 29.98 in 1.8 mi North 5.8 mph - 0.01 in Rain , Thunderstorm Heavy Thunderstorms and Rain